Location: �quirre
(50.4736°N, 2.2351°E)
Time: 16:47:21
(UTC+00:00)

Cosmos 1607 - Pass Details

Date: 07 August 2020
Orbit: 911 x 992 km, 65.0° (Epoch: 24 September)

Event Time Altitude Azimuth Distance (km) Brightness Sun altitude
Rises 02:15:13 0° 318° (NW) 3,688 7.2 -16.6°
Reaches altitude 10° 02:17:48 10° 316° (NW) 2,745 6.5 -16.4°
Maximum altitude 02:24:10 65° 236° (WSW) 1,087 4.0 -15.8°
Drops below altitude 10° 02:30:32 10° 157° (SSE) 2,747 6.1 -15.2°
Sets 02:33:08 0° 154° (SSE) 3,691 6.8 -14.9°
